Date String (YYYY-MM-DD hh:mm:ss) UTC,Instrument flags,Ambient pressure (hPa),Sample flow (lpm),Bypass flow (lpm),Sample temperature (°C),Ambient temperature (°C),ASC tube jacket temperature (°C),LED temperature (°C),Box temperature (°C),Sample RH (%),Span deviation,Mass concentration (μg/m³),Mass concentration (μg/m³),Mass concentration (μg/m³)
DateTimeUTC,F1_M11,P_M11,Q1_M11,Q2_M11,T1_M11,T2_M11,T3_M11,T4_M11,T5_M11,U1_M11,ZSPAN_M11,X2_M11,X0_M11,X1_M11
2023-02-27 08:00:00,,0810.2,5.01,0.00,21.1,19.5,00.0,30.1,22.7,10.5,0000.0,0000.48,0002.70,0000.28
2023-02-27 08:01:00,,0810.3,5.01,0.00,21.2,20.9,00.0,30.0,23.0,10.4,0000.0,0000.45,0002.66,0000.28
2023-02-27 08:02:00,,0810.2,5.02,0.00,21.4,22.1,00.0,30.1,23.4,10.3,0000.0,0000.44,0002.63,0000.27
2023-02-27 08:03:00,,0810.2,5.01,0.00,21.5,22.8,00.0,30.1,23.6,10.2,0000.0,0000.42,0002.58,0000.27
2023-02-27 08:04:00,,0810.2,5.00,0.00,21.6,22.1,00.0,30.2,23.5,10.0,0000.0,0000.41,0001.59,0000.27
2023-02-27 08:05:00,,0810.3,5.00,0.00,21.6,21.3,00.0,30.2,23.3,09.7,0000.0,0000.39,0001.07,0000.27
2023-02-27 08:06:00,,0810.4,5.00,0.00,21.5,20.8,00.0,30.2,23.1,10.0,0000.0,0000.37,0001.03,0000.27
2023-02-27 08:07:00,,0810.3,5.00,0.00,21.5,20.3,00.0,30.2,23.0,10.1,0000.0,0000.35,0000.99,0000.27
2023-02-27 08:08:00,,0810.4,5.00,0.00,21.4,20.0,00.0,30.2,22.9,10.2,0000.0,0000.35,0000.79,0000.27
2023-02-27 08:09:00,,0810.3,5.02,0.00,21.4,19.8,00.0,30.2,22.8,10.6,0000.0,0000.35,0000.59,0000.27
2023-02-27 08:10:00,,0810.3,5.00,0.00,21.3,19.5,00.0,30.2,22.7,10.9,0000.0,0000.37,0000.62,0000.28
2023-02-27 08:11:00,,0810.2,5.00,0.00,21.2,19.4,00.0,30.2,22.7,11.1,0000.0,0000.37,0000.71,0000.28
2023-02-27 08:12:00,,0810.2,5.00,0.00,21.2,19.3,00.0,30.1,22.6,10.7,0000.0,0000.37,0000.83,0000.28
2023-02-27 08:13:00,,0810.3,5.00,0.00,21.1,19.2,00.0,30.1,22.6,10.7,0000.0,0000.38,0000.91,0000.28
2023-02-27 08:14:00,,0810.5,5.01,0.00,21.2,20.4,00.0,30.1,22.8,10.8,0000.0,0000.39,0001.05,0000.27
2023-02-27 08:15:00,,0810.4,4.98,0.00,21.3,21.7,00.0,30.1,23.2,10.7,0000.0,0000.40,0001.04,0000.28
2023-02-27 08:16:00,,0810.4,5.00,0.00,21.5,22.4,00.0,30.1,23.4,10.6,0000.0,0000.42,0001.10,0000.28
2023-02-27 08:17:00,,0810.3,4.99,0.00,21.5,21.8,00.0,30.2,23.3,10.7,0000.0,0000.45,0001.16,0000.28
2023-02-27 08:18:00,,0810.3,5.00,0.00,21.5,21.1,00.0,30.2,23.1,10.7,0000.0,0000.45,0001.18,0000.28
2023-02-27 08:19:00,,0810.4,5.00,0.00,21.4,20.6,00.0,30.2,23.0,10.7,0000.0,0000.44,0001.15,0000.27
2023-02-27 08:20:00,,0810.4,5.01,0.00,21.4,20.2,00.0,30.2,22.8,10.7,0000.0,0000.45,0001.16,0000.28
2023-02-27 08:21:00,,0810.3,4.99,0.00,21.3,19.9,00.0,30.2,22.8,10.8,0000.0,0000.43,0001.14,0000.27
2023-02-27 08:22:00,,0810.4,5.00,0.00,21.2,19.6,00.0,30.2,22.7,10.5,0000.0,0000.44,0001.09,0000.26
2023-02-27 08:23:00,,0810.5,4.98,0.00,21.2,19.4,00.0,30.1,22.6,10.2,0000.0,0000.45,0000.96,0000.26
2023-02-27 08:24:00,,0810.5,4.99,0.00,21.1,19.3,00.0,30.1,22.5,10.4,0000.0,0000.45,0000.96,0000.26
2023-02-27 08:25:00,,0810.6,5.00,0.00,21.1,19.5,00.0,30.1,22.6,10.7,0000.0,0000.48,0000.91,0000.26
2023-02-27 08:26:00,,0810.6,4.97,0.00,21.2,20.9,00.0,30.1,22.9,10.9,0000.0,0000.52,0000.97,0000.26
2023-02-27 08:27:00,,0810.6,4.99,0.00,21.4,22.1,00.0,30.1,23.3,10.8,0000.0,0000.51,0000.93,0000.26
2023-02-27 08:28:00,,0810.6,5.01,0.00,21.5,22.3,00.0,30.1,23.4,10.6,0000.0,0000.53,0000.95,0000.26
2023-02-27 08:29:00,,0810.5,5.01,0.00,21.5,21.5,00.0,30.2,23.3,10.9,0000.0,0000.53,0000.94,0000.27
2023-02-27 08:30:00,,0810.6,4.98,0.00,21.4,20.9,00.0,30.2,23.1,10.9,0000.0,0000.55,0000.97,0000.27
2023-02-27 08:31:00,,0810.9,5.00,0.00,21.4,20.4,00.0,30.2,23.0,10.7,0000.0,0000.55,0000.96,0000.28
2023-02-27 08:32:00,,0810.9,5.00,0.00,21.4,20.1,00.0,30.2,22.9,10.7,0000.0,0000.55,0000.94,0000.28
2023-02-27 08:33:00,,0810.9,5.00,0.00,21.3,19.8,00.0,30.2,22.9,10.4,0000.0,0000.53,0000.88,0000.28
2023-02-27 08:34:00,,0810.8,5.00,0.00,21.3,19.7,00.0,30.2,22.9,10.9,0000.0,0000.52,0000.87,0000.28
2023-02-27 08:35:00,,0811.0,4.99,0.00,21.3,19.5,00.0,30.2,22.7,10.8,0000.0,0000.53,0001.45,0000.28
2023-02-27 08:36:00,,0811.0,4.99,0.00,21.2,19.3,00.0,30.1,22.7,10.2,0000.0,0000.52,0002.06,0000.28
2023-02-27 08:37:00,,0811.0,5.02,0.00,21.2,19.3,00.0,30.1,22.6,10.0,0000.0,0000.49,0002.04,0000.29
2023-02-27 08:38:00,,0811.0,5.00,0.00,21.1,19.3,00.0,30.1,22.6,10.2,0000.0,0000.49,0002.04,0000.29
2023-02-27 08:39:00,,0810.9,5.00,0.00,21.2,20.3,00.0,30.0,22.8,10.4,0000.0,0000.47,0002.02,0000.30
2023-02-27 08:40:00,,0810.9,5.00,0.00,21.3,21.7,00.0,30.0,23.2,10.5,0000.0,0000.48,0002.05,0000.29
2023-02-27 08:41:00,,0810.9,5.02,0.00,21.5,22.4,00.0,30.1,23.5,10.4,0000.0,0000.48,0002.08,0000.29
2023-02-27 08:42:00,,0811.1,5.00,0.00,21.5,21.9,00.0,30.1,23.4,10.4,0000.0,0000.47,0002.07,0000.29
2023-02-27 08:43:00,,0811.0,4.99,0.00,21.5,21.4,00.0,30.2,23.3,10.6,0000.0,0000.47,0002.06,0000.30
2023-02-27 08:44:00,,0811.0,5.01,0.00,21.5,21.0,00.0,30.2,23.2,10.2,0000.0,0000.48,0002.10,0000.30
2023-02-27 08:45:00,,0811.0,5.01,0.00,21.5,20.6,00.0,30.2,23.2,09.8,0000.0,0000.52,0002.38,0000.31
2023-02-27 08:46:00,,0811.0,5.01,0.00,21.5,20.4,00.0,30.2,23.1,09.8,0000.0,0000.52,0001.96,0000.31
2023-02-27 08:47:00,,0810.8,5.00,0.00,21.5,20.2,00.0,30.2,23.1,09.8,0000.0,0000.51,0001.15,0000.31
2023-02-27 08:48:00,,0811.0,5.00,0.00,21.5,20.0,00.0,30.2,23.1,09.0,0000.0,0000.51,0001.14,0000.31
2023-02-27 08:49:00,,0810.9,5.00,0.00,21.4,19.9,00.0,30.2,23.0,09.1,0000.0,0000.55,0001.23,0000.31
2023-02-27 08:50:00,,0811.0,5.00,0.00,21.4,19.8,00.0,30.2,23.0,08.6,0000.0,0000.55,0001.24,0000.31
2023-02-27 08:51:00,,0811.0,5.00,0.00,21.4,19.7,00.0,30.2,23.0,08.7,0000.0,0000.55,0001.21,0000.31
2023-02-27 08:52:00,,0811.0,5.00,0.00,21.4,19.7,00.0,30.2,23.0,09.1,0000.0,0000.55,0001.22,0000.31
2023-02-27 08:53:00,,0811.0,4.99,0.00,21.4,19.6,00.0,30.2,23.0,09.2,0000.0,0000.59,0001.32,0000.31
2023-02-27 08:54:00,,0811.0,5.00,0.00,21.4,20.1,00.0,30.2,23.1,09.2,0000.0,0000.61,0001.36,0000.30
2023-02-27 08:55:00,,0811.1,5.02,0.00,21.5,21.6,00.0,30.2,23.4,09.2,0000.0,0000.59,0001.31,0000.30
2023-02-27 08:56:00,,0811.1,5.00,0.00,21.6,22.8,00.0,30.2,23.7,09.1,0000.0,0000.60,0001.12,0000.31
2023-02-27 08:57:00,,0811.0,4.98,0.00,21.8,22.8,00.0,30.3,23.8,09.1,0000.0,0000.59,0001.10,0000.31
2023-02-27 08:58:00,,0811.3,5.02,0.00,21.8,22.2,00.0,30.3,23.7,08.1,0000.0,0000.57,0001.06,0000.30
2023-02-27 08:59:00,,0811.4,5.00,0.00,21.8,21.7,00.0,30.4,23.6,08.3,0000.0,0000.55,0001.03,0000.30
